Lafayette, IN

10:01 AM EDT on April 25, 2017 (GMT -0400)
Purdue Univ

Weather History for KLAF - February, 2013

Change the Weather History Date:

Monday, February 4, 2013

  Actual Average Record
Temperature  
Mean Temperature 30 °F 28 °F  
Max Temperature 39 °F 36 °F 60 °F (2008)
Min Temperature 21 °F 20 °F -7 °F (1979)
Degree Days  
Heating Degree Days 35 37  
Month to date heating degree days 183 149  
Since 1 July heating degree days 3521 3517  
Cooling Degree Days 0 0  
Month to date cooling degree days 0 0  
Year to date cooling degree days 0 0  
Moisture  
Dew Point 21 °F    
Average Humidity 70    
Maximum Humidity 81    
Minimum Humidity 59    
Precipitation  
Precipitation 0.00 in 0.05 in 1.55 in (1971)
Month to date precipitation 0.01 0.22  
Year to date precipitation 3.68 2.08  
Sea Level Pressure  
Sea Level Pressure 29.90 in    
Wind  
Wind Speed 7 mph (North)    
Max Wind Speed 15 mph    
Max Gust Speed 20 mph    
Visibility 10 miles    
Events      
T = Trace of Precipitation, MM = Missing Value Source: NWS Daily Summary

Daily Weather History Graph

Daily Weather History Graph

Search for Another Location

Airport or City:

Trip Planner

Search our weather history database for the weather conditions in past years. The results will help you decide how hot, cold, wet, or windy it might be!

Date:

Astronomy

Feb. 04, 2013 Rise Set
Actual Time 7:53 AM EST 6:10 PM EST
Civil Twilight 7:25 AM EST 6:38 PM EST
Nautical Twilight 6:52 AM EST 7:11 PM EST
Astronomical Twilight 6:20 AM EST 7:43 PM EST
Moon 2:29 AM EST (2/4) 12:33 PM EST (2/4)
Length of Visible Light 11h 13m
Length of Day
10h 16m
Last Quarter, 37% of the Moon is Illuminated
Feb 4
Last Quarter
Feb 10
New
Feb 17
First Quarter
Feb 25
Full
Mar 4
Last Quarter

Hourly Weather History & Observations

Time (EST) Temp. Windchill Dew Point Humidity Pressure Visibility Wind Dir Wind Speed Gust Speed Precip Events Conditions
12:54 AM 21.9 °F 17.2 °F 14.0 °F 72% 30.09 in 10.0 mi WSW 3.5 mph - N/A   Overcast
1:54 AM 23.0 °F - 15.1 °F 72% 30.08 in 10.0 mi Calm Calm - N/A   Overcast
2:54 AM 23.0 °F - 15.1 °F 72% 30.07 in 10.0 mi Calm Calm - N/A   Overcast
3:54 AM 21.9 °F - 14.0 °F 72% 30.03 in 10.0 mi Calm Calm - N/A   Mostly Cloudy
5:54 AM 24.1 °F 18.2 °F 16.0 °F 71% 29.97 in 10.0 mi South 4.6 mph - N/A   Overcast
6:54 AM 25.0 °F - 17.1 °F 72% 29.94 in 10.0 mi Calm Calm - N/A   Overcast
7:54 AM 25.0 °F 17.1 °F 17.1 °F 72% 29.93 in 10.0 mi South 6.9 mph - N/A   Overcast
8:54 AM 26.1 °F 16.2 °F 17.1 °F 69% 29.89 in 10.0 mi South 10.4 mph - N/A   Overcast
9:54 AM 27.0 °F 19.5 °F 17.1 °F 66% 29.88 in 10.0 mi South 6.9 mph - N/A   Overcast
10:54 AM 28.9 °F 21.9 °F 19.0 °F 67% 29.87 in 10.0 mi South 6.9 mph - N/A   Overcast
11:54 AM 30.9 °F 24.3 °F 19.9 °F 64% 29.87 in 10.0 mi SSW 6.9 mph - N/A   Overcast
12:54 PM 32.0 °F 26.4 °F 21.9 °F 66% 29.84 in 10.0 mi SW 5.8 mph - N/A   Overcast
1:54 PM 34.0 °F 27.2 °F 24.1 °F 67% 29.82 in 10.0 mi SW 8.1 mph - N/A   Scattered Clouds
2:54 PM 37.0 °F 31.0 °F 25.0 °F 62% 29.81 in 10.0 mi West 8.1 mph - N/A   Clear
3:54 PM 37.9 °F 32.1 °F 27.0 °F 65% 29.82 in 10.0 mi NW 8.1 mph - N/A   Mostly Cloudy
4:03 PM 37.4 °F 31.4 °F 26.6 °F 65% 29.80 in 10.0 mi North 8.1 mph - N/A   Scattered Clouds
4:32 PM 35.6 °F 28.0 °F 26.6 °F 70% 29.81 in 10.0 mi NNW 10.4 mph - N/A   Mostly Cloudy
4:43 PM 35.6 °F 27.1 °F 26.6 °F 70% 29.82 in 10.0 mi North 12.7 mph 19.6 mph N/A   Scattered Clouds
4:54 PM 34.0 °F 25.0 °F 26.1 °F 73% 29.84 in 10.0 mi North 12.7 mph - N/A   Scattered Clouds
5:08 PM 33.8 °F 25.8 °F 24.8 °F 70% 29.82 in 10.0 mi North 10.4 mph - N/A   Mostly Cloudy
5:54 PM 32.0 °F 24.8 °F 24.1 °F 73% 29.83 in 10.0 mi NNE 8.1 mph - N/A   Overcast
6:54 PM 30.9 °F 21.7 °F 23.0 °F 72% 29.87 in 10.0 mi North 11.5 mph - N/A   Overcast
7:54 PM 28.9 °F 19.8 °F 23.0 °F 78% 29.91 in 10.0 mi North 10.4 mph - N/A   Overcast
8:54 PM 28.0 °F 17.5 °F 21.9 °F 78% 29.93 in 10.0 mi North 12.7 mph - N/A   Overcast
9:41 PM 26.6 °F 16.8 °F 19.4 °F 74% 29.92 in 10.0 mi North 10.4 mph - N/A   Overcast
9:54 PM 27.0 °F 19.5 °F 21.0 °F 78% 29.94 in 10.0 mi NNE 6.9 mph - N/A   Overcast
10:54 PM 27.0 °F 18.0 °F 19.9 °F 75% 29.96 in 10.0 mi North 9.2 mph - N/A   Overcast
11:16 PM 26.6 °F 18.2 °F 19.4 °F 74% 29.92 in 10.0 mi NE 8.1 mph - N/A   Overcast
11:39 PM 26.6 °F 20.0 °F 19.4 °F 74% 29.91 in 10.0 mi NE 5.8 mph - N/A   Scattered Clouds
11:54 PM 26.1 °F 18.4 °F 19.0 °F 75% 29.94 in 10.0 mi NNE 6.9 mph - N/A   Partly Cloudy